Retour au catalogue

COSMOS 2491 DEB

ActifPO
NORAD 45172·DEBRIS·🇷🇺 Russia

Lancé Dec 25, 2013 depuis Plesetsk Cosmodrome

Loading…

Prochains Passages (prochaines 24 heures)

TLE

FraisSource: Space-Track

Époque: Sep 11, 2026, 16:34 UTC

1 45172U 13076AD  26254.69063428  .00001516  00000-0  74462-2 0  9991
2 45172  82.4589  53.4170 0132100 298.9373  59.8526 12.68913526305258

Suivez COSMOS 2491 DEB en temps réel avec AllMySat

Download on the App Store